Location: Arrien
(43.3167°N, 0.1500°W)
Time: 23:29:43
(UTC+00:00)

Iridium 4 Rocket - Pass Details

Date: 15 October 2021
Orbit: 586 x 903 km, 86.9° (Epoch: 04 December)

Event Time Altitude Azimuth Distance (km) Brightness Sun altitude
Rises 18:29:40 0° 5° (N) 2,872 6.4 -13.9°
Reaches altitude 10° 18:31:55 10° 12° (NNE) 1,992 5.6 -14.3°
Maximum altitude 18:36:04 42° 84° (E) 932 3.5 -15.1°
Drops below altitude 10° 18:40:30 10° 155° (SSE) 2,128 5.5 -15.9°
Sets 18:42:58 0° 162° (SSE) 3,093 6.4 -16.3°
